When you browse on this site, cookies collect data to enhance your experience and personalize the content and advertising you see.
Visit our Privacy Policy to learn more. By continuing to use the site, you agree to this use of cookies and data.
  • în România
  • Lista ţărilor
  • Pe 7 zile
  • Temperatura apei
  • Hartă satelitară
  • Meteo pe hartă
  • Widget-uri
  • user-avatar
    Intrare

    Meteo pe oră la Koniusza

    Astăzi, 22 Februarie, Vineri

    Timp Temperatura Precipitaţii Vânt Presiune Umiditate
    00:00 +3°C° 0.4 mm 5 m/s 735 mmHg 86%
    01:00 +4°C° 0 mm 4 m/s 735 mmHg 87%
    02:00 +4°C° 0.6 mm 4 m/s 735 mmHg 88%
    03:00 +3°C° 0.6 mm 5 m/s 735 mmHg 89%
    04:00 +3°C° 0.6 mm 5 m/s 735 mmHg 89%
    05:00 +1°C° 0.6 mm 6 m/s 736 mmHg 87%
    06:00 -1°C° 0.6 mm 7 m/s 737 mmHg 85%
    07:00 -3°C° 0 mm 7 m/s 738 mmHg 80%
    08:00 -4°C° 0.1 mm 7 m/s 739 mmHg 75%
    09:00 -4°C° 0.1 mm 7 m/s 740 mmHg 69%
    10:00 -6°C° 0.1 mm 7 m/s 742 mmHg 64%
    11:00 -4°C° 0 mm 7 m/s 742 mmHg 58%
    12:00 -4°C° 0 mm 7 m/s 743 mmHg 51%
    13:00 -4°C° 0 mm 6 m/s 745 mmHg 44%
    14:00 -5°C° 0 mm 6 m/s 745 mmHg 44%
    15:00 -5°C° 0 mm 6 m/s 745 mmHg 44%
    16:00 -6°C° 0 mm 6 m/s 746 mmHg 44%
    17:00 -6°C° 0 mm 6 m/s 746 mmHg 45%
    18:00 -6°C° 0 mm 6 m/s 747 mmHg 46%
    19:00 -7°C° 0 mm 5 m/s 748 mmHg 47%
    20:00 -7°C° 0 mm 5 m/s 748 mmHg 44%
    21:00 -7°C° 0 mm 5 m/s 749 mmHg 42%
    22:00 -7°C° 0 mm 5 m/s 750 mmHg 39%
    23:00 -7°C° 0 mm 5 m/s 750 mmHg 40%

    Mâine, 23 Februarie, Sâmbătă

    Timp Temperatura Precipitaţii Vânt Presiune Umiditate
    00:00 -7°C° 0 mm 5 m/s 750 mmHg 40%
    01:00 -7°C° 0 mm 4 m/s 751 mmHg 40%
    02:00 -7°C° 0 mm 4 m/s 751 mmHg 42%
    03:00 -8°C° 0 mm 4 m/s 751 mmHg 43%
    04:00 -7°C° 0 mm 3 m/s 751 mmHg 45%
    05:00 -7°C° 0 mm 3 m/s 751 mmHg 47%
    06:00 -7°C° 0 mm 3 m/s 752 mmHg 49%
    07:00 -7°C° 0 mm 3 m/s 752 mmHg 51%
    08:00 -6°C° 0 mm 3 m/s 752 mmHg 49%
    09:00 -6°C° 0 mm 3 m/s 752 mmHg 47%
    10:00 -5°C° 0 mm 3 m/s 752 mmHg 45%
    11:00 -5°C° 0 mm 3 m/s 752 mmHg 42%
    12:00 -4°C° 0 mm 3 m/s 752 mmHg 39%
    13:00 -2°C° 0 mm 2 m/s 752 mmHg 37%
    14:00 -2°C° 0 mm 2 m/s 752 mmHg 37%
    15:00 -2°C° 0 mm 2 m/s 752 mmHg 37%
    16:00 -2°C° 0 mm 2 m/s 752 mmHg 37%
    17:00 -3°C° 0 mm 2 m/s 752 mmHg 40%
    18:00 -2°C° 0 mm 1 m/s 752 mmHg 43%
    19:00 -2°C° 0 mm 1 m/s 752 mmHg 47%
    20:00 -2°C° 0 mm 1 m/s 751 mmHg 47%
    21:00 -3°C° 0 mm 1 m/s 751 mmHg 48%
    22:00 -3°C° 0 mm 1 m/s 751 mmHg 48%
    23:00 -3°C° 0 mm 1 m/s 751 mmHg 49%

    Poimâine, 24 Februarie, Duminică

    Timp Temperatura Precipitaţii Vânt Presiune Umiditate
    00:00 -3°C° 0 mm 1 m/s 751 mmHg 49%
    01:00 -3°C° 0 mm 1 m/s 751 mmHg 49%
    02:00 -3°C° 0 mm 1 m/s 750 mmHg 48%
    03:00 -3°C° 0 mm 1 m/s 750 mmHg 47%
    04:00 -3°C° 0 mm 0 m/s 750 mmHg 46%
    05:00 -2°C° 0 mm 1 m/s 750 mmHg 45%
    06:00 -2°C° 0 mm 1 m/s 750 mmHg 43%
    07:00 -1°C° 0 mm 1 m/s 749 mmHg 41%
    08:00 -1°C° 0 mm 1 m/s 749 mmHg 37%
    09:00 -2°C° 0 mm 2 m/s 749 mmHg 34%
    10:00 -1°C° 0 mm 2 m/s 749 mmHg 30%
    11:00 +1°C° 0 mm 2 m/s 749 mmHg 28%
    12:00 +1°C° 0 mm 3 m/s 749 mmHg 26%
    13:00 +2°C° 0 mm 3 m/s 748 mmHg 24%
    14:00 +2°C° 0 mm 3 m/s 748 mmHg 28%
    15:00 +2°C° 0 mm 3 m/s 748 mmHg 32%
    16:00 +2°C° 0 mm 3 m/s 747 mmHg 36%
    17:00 +1°C° 0 mm 3 m/s 747 mmHg 39%
    18:00 0°C° 0 mm 3 m/s 748 mmHg 42%
    19:00 -1°C° 0 mm 3 m/s 748 mmHg 46%
    20:00 -1°C° 0 mm 3 m/s 748 mmHg 47%
    21:00 -2°C° 0 mm 3 m/s 748 mmHg 48%
    22:00 -2°C° 0 mm 3 m/s 748 mmHg 49%
    23:00 -2°C° 0 mm 3 m/s 748 mmHg 51%

    25 Februarie, Luni

    Timp Temperatura Precipitaţii Vânt Presiune Umiditate
    00:00 -2°C° 0 mm 3 m/s 748 mmHg 52%
    01:00 -2°C° 0 mm 3 m/s 748 mmHg 54%
    02:00 -2°C° 0 mm 3 m/s 748 mmHg 56%
    03:00 -2°C° 0 mm 3 m/s 747 mmHg 58%
    04:00 -3°C° 0 mm 4 m/s 747 mmHg 60%
    05:00 -3°C° 0 mm 4 m/s 747 mmHg 63%
    06:00 -3°C° 0 mm 4 m/s 747 mmHg 65%
    07:00 -3°C° 0 mm 4 m/s 747 mmHg 68%
    08:00 -2°C° 0 mm 4 m/s 748 mmHg 66%
    09:00 0°C° 0 mm 4 m/s 748 mmHg 65%
    10:00 +1°C° 0 mm 4 m/s 748 mmHg 63%
    11:00 +3°C° 0 mm 4 m/s 748 mmHg 64%
    12:00 +4°C° 0 mm 4 m/s 748 mmHg 65%
    13:00 +5°C° 0 mm 4 m/s 748 mmHg 66%
    14:00 +5°C° 0 mm 3 m/s 747 mmHg 69%
    15:00 +5°C° 0 mm 3 m/s 747 mmHg 72%
    16:00 +4°C° 0 mm 3 m/s 747 mmHg 75%
    17:00 +3°C° 0 mm 3 m/s 747 mmHg 80%
    18:00 +2°C° 0 mm 3 m/s 747 mmHg 85%
    19:00 +1°C° 0 mm 3 m/s 747 mmHg 89%
    20:00 +1°C° 0 mm 3 m/s 747 mmHg 90%
    21:00 0°C° 0 mm 3 m/s 747 mmHg 91%
    22:00 0°C° 0 mm 3 m/s 747 mmHg 92%
    23:00 0°C° 0 mm 3 m/s 746 mmHg 92%

    26 Februarie, Marţi

    Timp Temperatura Precipitaţii Vânt Presiune Umiditate
    00:00 -1°C° 0 mm 4 m/s 746 mmHg 92%
    01:00 -1°C° 0 mm 4 m/s 746 mmHg 92%
    02:00 -1°C° 0 mm 4 m/s 745 mmHg 92%
    03:00 -1°C° 0 mm 5 m/s 745 mmHg 93%
    04:00 -1°C° 0 mm 5 m/s 744 mmHg 93%
    05:00 -1°C° 0 mm 5 m/s 744 mmHg 92%
    06:00 -1°C° 0 mm 5 m/s 744 mmHg 92%
    07:00 -1°C° 0 mm 5 m/s 744 mmHg 91%
    08:00 -1°C° 0 mm 6 m/s 743 mmHg 82%
    09:00 +2°C° 0 mm 6 m/s 743 mmHg 74%
    10:00 +3°C° 0 mm 6 m/s 743 mmHg 65%
    11:00 +4°C° 0 mm 7 m/s 743 mmHg 60%
    12:00 +5°C° 0 mm 7 m/s 742 mmHg 55%
    13:00 +6°C° 0 mm 7 m/s 742 mmHg 51%
    14:00 +6°C° 0 mm 7 m/s 742 mmHg 52%
    15:00 +7°C° 0 mm 6 m/s 742 mmHg 53%
    16:00 +7°C° 0 mm 6 m/s 741 mmHg 54%
    17:00 +6°C° 0 mm 5 m/s 742 mmHg 59%
    18:00 +5°C° 0 mm 5 m/s 742 mmHg 63%
    19:00 +5°C° 0 mm 4 m/s 742 mmHg 68%
    20:00 +4°C° 0 mm 4 m/s 742 mmHg 72%
    21:00 +3°C° 0 mm 4 m/s 742 mmHg 77%
    22:00 +3°C° 0 mm 3 m/s 743 mmHg 82%
    23:00 +2°C° 0 mm 3 m/s 743 mmHg 85%

    27 Februarie, Miercuri

    Timp Temperatura Precipitaţii Vânt Presiune Umiditate
    00:00 +1°C° 0 mm 3 m/s 743 mmHg 88%
    01:00 +1°C° 0 mm 3 m/s 743 mmHg 91%
    02:00 0°C° 0 mm 3 m/s 743 mmHg 92%
    03:00 0°C° 0 mm 3 m/s 742 mmHg 92%
    04:00 -1°C° 0 mm 3 m/s 742 mmHg 92%
    05:00 -1°C° 0 mm 3 m/s 742 mmHg 92%
    06:00 -1°C° 0 mm 3 m/s 742 mmHg 92%
    07:00 -1°C° 0 mm 2 m/s 742 mmHg 92%
    08:00 +1°C° 0 mm 3 m/s 742 mmHg 85%
    09:00 +3°C° 0 mm 3 m/s 742 mmHg 78%
    10:00 +4°C° 0 mm 3 m/s 742 mmHg 71%
    11:00 +5°C° 0 mm 4 m/s 742 mmHg 67%
    12:00 +7°C° 0 mm 4 m/s 741 mmHg 63%
    13:00 +8°C° 0 mm 4 m/s 741 mmHg 59%
    14:00 +8°C° 0 mm 4 m/s 740 mmHg 60%
    15:00 +8°C° 0 mm 4 m/s 739 mmHg 61%
    16:00 +8°C° 0 mm 5 m/s 738 mmHg 61%
    17:00 +7°C° 0 mm 5 m/s 738 mmHg 64%
    18:00 +6°C° 0 mm 4 m/s 738 mmHg 67%
    19:00 +5°C° 0 mm 4 m/s 738 mmHg 70%
    20:00 +5°C° 0 mm 4 m/s 737 mmHg 70%
    21:00 +5°C° 0 mm 4 m/s 737 mmHg 71%
    22:00 +3°C° 0 mm 5 m/s 736 mmHg 71%
    23:00 +3°C° 0 mm 5 m/s 736 mmHg 71%
    Arată mai mult